Le nostre stazioni meteo in Italia

Pubblicità
Il mio iltempo24.it
Braemar, Gran Bretagna (99089): Temperatura & dewpoint: 09.09.2019 20:00:00 - 15.09.2019 20:00:00 (BST)Braemar, Gran Bretagna (99089): Temperatura -20cm & Temperatura -100cm: 09.09.2019 20:00:00 - 15.09.2019 20:00:00 (BST)Braemar, Gran Bretagna (99089): precipitazioni: 09.09.2019 20:00:00 - 15.09.2019 20:00:00 (BST)
Data & Tempo tt [°C] td [°C] tt -20cm [°C] tt -100cm [°C] rr [mm]
15.09.2019 20:00:00 - - - - -
15.09.2019 19:00:00 10,6 2,5 - - 0,0
15.09.2019 18:00:00 11,8 4,1 - - 0,0
15.09.2019 17:00:00 11,5 3,6 - - 0,0
15.09.2019 16:00:00 13,2 3,3 - - 0,0
15.09.2019 15:00:00 13,5 5,1 - - 0,0
15.09.2019 14:00:00 12,2 3,8 - - 0,0
15.09.2019 13:00:00 10,9 3,7 - - 0,0
15.09.2019 12:00:00 10,3 4,1 - - 0,0
15.09.2019 11:00:00 10,4 4,2 - - 0,0
15.09.2019 10:00:00 9,7 3,2 11,7 12,0 0,0
15.09.2019 09:00:00 8,7 3,6 - - 0,0
15.09.2019 08:00:00 8,3 3,5 - - 0,0
15.09.2019 07:00:00 7,9 3,2 - - 0,0
15.09.2019 06:00:00 8,3 2,4 - - 0,0
15.09.2019 05:00:00 8,7 3,1 - - 0,0
15.09.2019 04:00:00 9,2 4,3 - - 0,0
15.09.2019 03:00:00 9,5 4,2 - - 0,0
15.09.2019 02:00:00 10,3 6,0 - - 0,0
15.09.2019 01:00:00 10,1 6,0 - - 0,0
15.09.2019 00:00:00 10,1 5,6 - - 0,0
14.09.2019 23:00:00 10,9 7,3 - - 0,0
14.09.2019 22:00:00 12,1 9,2 - - 0,2
14.09.2019 21:00:00 13,6 12,1 - - 0,2
14.09.2019 20:00:00 14,8 11,6 - - 0,0
14.09.2019 19:00:00 14,5 11,4 - - 0,0
14.09.2019 18:00:00 14,1 11,5 - - 0,0
14.09.2019 17:00:00 13,4 11,2 - - 0,0
14.09.2019 16:00:00 13,1 10,9 - - 0,0
14.09.2019 15:00:00 13,1 10,5 - - 0,0
14.09.2019 14:00:00 13,1 9,6 - - 0,0
14.09.2019 13:00:00 13,5 9,5 - - 0,0
14.09.2019 12:00:00 11,7 8,5 - - 0,0
14.09.2019 11:00:00 12,1 8,0 - - 0,0
14.09.2019 10:00:00 11,7 7,7 12,0 12,2 0,0
14.09.2019 09:00:00 11,7 7,0 - - 0,0
14.09.2019 08:00:00 11,4 6,5 - - 0,0
14.09.2019 07:00:00 10,9 6,5 - - 0,0
14.09.2019 06:00:00 10,8 6,4 - - 0,0
14.09.2019 05:00:00 9,9 5,8 - - 0,0
14.09.2019 04:00:00 10,0 5,4 - - 0,0
14.09.2019 03:00:00 10,1 6,1 - - 0,0
14.09.2019 02:00:00 10,4 5,8 - - 0,0
14.09.2019 01:00:00 10,1 6,3 - - 0,0
14.09.2019 00:00:00 10,2 6,4 - - 0,0
13.09.2019 23:00:00 9,7 6,5 - - 0,0
13.09.2019 22:00:00 9,0 6,2 - - 0,0
13.09.2019 21:00:00 9,2 5,9 - - 0,0
13.09.2019 20:00:00 10,0 5,6 - - 0,0
13.09.2019 19:00:00 11,6 5,0 - - 0,0
13.09.2019 18:00:00 12,5 5,0 - - 0,0
13.09.2019 17:00:00 13,3 5,0 - - 0,0
13.09.2019 16:00:00 12,9 3,9 - - 0,0
13.09.2019 15:00:00 14,2 5,2 - - 0,0
13.09.2019 14:00:00 14,3 3,7 - - 0,0
13.09.2019 13:00:00 14,1 4,8 - - 0,0
13.09.2019 12:00:00 13,1 5,1 - - 0,0
13.09.2019 11:00:00 11,9 5,7 - - 0,0
13.09.2019 10:00:00 10,2 5,1 12,2 12,2 0,0
13.09.2019 09:00:00 9,0 5,4 - - 0,0
13.09.2019 08:00:00 8,5 4,4 - - 0,0
13.09.2019 07:00:00 8,3 4,0 - - 0,0
13.09.2019 06:00:00 8,3 4,6 - - 0,0
13.09.2019 05:00:00 8,3 4,8 - - 0,0
13.09.2019 04:00:00 8,8 5,2 - - 0,0
13.09.2019 03:00:00 9,0 5,1 - - 0,0
13.09.2019 02:00:00 8,7 5,1 - - 0,0
13.09.2019 01:00:00 8,9 5,9 - - 0,0
13.09.2019 00:00:00 7,0 4,8 - - 0,0
12.09.2019 23:00:00 6,9 4,3 - - 0,0
12.09.2019 22:00:00 7,1 4,7 - - 0,0
12.09.2019 21:00:00 7,8 4,6 - - 0,0
12.09.2019 20:00:00 10,2 5,8 - - 0,0
12.09.2019 19:00:00 11,1 5,2 - - 0,0
12.09.2019 18:00:00 14,0 7,0 - - 0,0
12.09.2019 17:00:00 14,6 6,6 - - 0,0
12.09.2019 16:00:00 15,1 7,4 - - 0,0
12.09.2019 15:00:00 14,2 8,4 - - 0,0
12.09.2019 14:00:00 13,1 9,2 - - 0,4
12.09.2019 13:00:00 11,3 10,2 - - 0,8
12.09.2019 12:00:00 12,1 9,2 - - 0,0
12.09.2019 11:00:00 12,4 8,3 - - 0,0
12.09.2019 10:00:00 11,9 8,2 12,7 12,2 0,0
12.09.2019 09:00:00 11,7 8,1 - - 0,0
12.09.2019 08:00:00 11,0 7,5 - - 0,0
12.09.2019 07:00:00 10,4 7,6 - - 0,0
12.09.2019 06:00:00 10,2 6,8 - - 0,0
12.09.2019 05:00:00 10,6 7,8 - - 0,0
12.09.2019 04:00:00 10,6 7,6 - - 0,0
12.09.2019 03:00:00 10,1 8,5 - - 0,0
12.09.2019 02:00:00 10,6 7,9 - - 0,0
12.09.2019 01:00:00 10,6 7,0 - - 0,0
12.09.2019 00:00:00 11,4 7,8 - - 0,0
11.09.2019 23:00:00 11,7 7,7 - - 0,0
11.09.2019 22:00:00 11,8 7,8 - - 0,0
11.09.2019 21:00:00 11,8 7,8 - - 0,0
11.09.2019 20:00:00 11,9 7,2 - - 0,0
11.09.2019 19:00:00 12,2 8,2 - - 0,0
11.09.2019 18:00:00 13,5 7,4 - - 0,0
11.09.2019 17:00:00 13,8 8,4 - - 0,0
11.09.2019 16:00:00 13,1 8,4 - - 0,0
11.09.2019 15:00:00 12,6 8,9 - - 0,0
11.09.2019 14:00:00 14,0 7,9 - - 0,0
11.09.2019 13:00:00 14,9 7,6 - - 0,0
11.09.2019 12:00:00 12,4 8,1 - - 0,0
11.09.2019 11:00:00 13,8 9,6 - - 0,0
11.09.2019 10:00:00 11,3 8,2 12,7 12,2 0,0
11.09.2019 09:00:00 11,6 8,6 - - 0,0
11.09.2019 08:00:00 10,8 8,8 - - 0,2
11.09.2019 07:00:00 11,6 8,5 - - 0,0
11.09.2019 06:00:00 12,0 8,4 - - 0,0
11.09.2019 05:00:00 13,6 10,9 - - 0,0
11.09.2019 04:00:00 14,2 12,5 - - 0,0
11.09.2019 03:00:00 14,1 11,8 - - 0,0
11.09.2019 02:00:00 13,7 11,2 - - 0,0
11.09.2019 01:00:00 12,1 10,1 - - 0,0
11.09.2019 00:00:00 11,7 9,8 - - 0,0
10.09.2019 23:00:00 10,8 9,1 - - 0,2
10.09.2019 22:00:00 10,4 9,1 - - 1,4
10.09.2019 21:00:00 10,0 8,6 - - 1,2
10.09.2019 20:00:00 9,8 7,7 - - 0,2
10.09.2019 19:00:00 11,0 6,8 - - 0,0
10.09.2019 18:00:00 12,0 6,7 - - 0,0
10.09.2019 17:00:00 12,9 5,5 - - 0,0
10.09.2019 16:00:00 13,9 6,1 - - 0,0
10.09.2019 15:00:00 14,8 7,3 - - 0,0
10.09.2019 14:00:00 14,0 8,0 - - 0,0
10.09.2019 13:00:00 14,7 8,7 - - 0,0
10.09.2019 12:00:00 12,9 6,9 - - 0,0
10.09.2019 11:00:00 12,8 8,7 - - 0,0
10.09.2019 10:00:00 10,4 8,2 12,4 12,2 0,0
10.09.2019 09:00:00 9,0 8,3 - - 0,0
10.09.2019 08:00:00 8,0 8,0 - - 0,0
10.09.2019 07:00:00 7,8 7,8 - - 0,0
10.09.2019 06:00:00 8,5 8,3 - - 0,0
10.09.2019 05:00:00 8,8 8,6 - - 0,0
10.09.2019 04:00:00 8,9 8,6 - - 0,0
10.09.2019 03:00:00 9,2 8,7 - - 0,0
10.09.2019 02:00:00 9,7 9,2 - - 0,0
10.09.2019 01:00:00 9,8 9,6 - - 0,0
10.09.2019 00:00:00 10,1 9,9 - - 0,0
09.09.2019 23:00:00 10,5 10,1 - - 0,0
09.09.2019 22:00:00 10,5 10,0 - - 0,2
09.09.2019 21:00:00 11,0 10,3 - - 0,2
09.09.2019 20:00:00 11,6 9,4 - - 0,0

tt = Temperatura
td = dewpoint
tt -20cm = Temperatura -20cm
tt -100cm = Temperatura -100cm
rr = precipitazioni

Stazioni seguenti

WeatherPro
AMSI
MeteoEarth